| time (UTC) | temp F | wind direction | speed MPH | gust MPH | rain 1hr in | rain 24hr in | rain mn in | humidity % | barometer mb |
| 20260905164517 | 79 | 293 | 1.0 | 4.0 | 0.00 | 0.00 | 0.00 | 76 | |
| 20260905163516 | 79 | 293 | 1.0 | 3.0 | 0.00 | 0.00 | 0.00 | 75 | |
| 20260905162517 | 79 | 293 | 1.0 | 2.0 | 0.00 | 0.00 | 0.00 | 75 | |
| 20260905161517 | 79 | 293 | 1.0 | 3.0 | 0.00 | 0.00 | 0.00 | 74 | |
| 20260905160517 | 80 | 293 | 2.0 | 6.0 | 0.00 | 0.00 | 0.00 | 73 | |
| 20260905155537 | 80 | 293 | 1.0 | 4.0 | 0.00 | 0.00 | 0.00 | 72 | |
| 20260905154516 | 81 | 293 | 2.0 | 5.0 | 0.00 | 0.00 | 0.00 | 72 | |
| 20260905153516 | 81 | 293 | 1.0 | 3.0 | 0.00 | 0.00 | 0.00 | 71 | |
| 20260905152517 | 81 | 293 | 1.0 | 5.0 | 0.00 | 0.00 | 0.00 | 71 | |
| 20260905151517 | 81 | 293 | 1.0 | 3.0 | 0.00 | 0.00 | 0.00 | 71 | |
| 20260905150537 | 81 | 293 | 1.0 | 3.0 | 0.00 | 0.00 | 0.00 | 71 | 1019.3 |
| 20260905145517 | 81 | 293 | 2.0 | 4.0 | 0.00 | 0.00 | 0.00 | 71 | 1019.4 |
| 20260905144517 | 81 | 293 | 2.0 | 6.0 | 0.00 | 0.00 | 0.00 | 70 | 1019.5 |
| 20260905143517 | 81 | 293 | 1.0 | 4.0 | 0.00 | 0.00 | 0.00 | 70 | 1019.5 |
| 20260905142517 | 81 | 293 | 2.0 | 4.0 | 0.00 | 0.00 | 0.00 | 70 | 1019.6 |
| 20260905141517 | 81 | 293 | 1.0 | 4.0 | 0.00 | 0.00 | 0.00 | 70 | 1019.8 |
| 20260905140516 | 81 | 293 | 2.0 | 4.0 | 0.00 | 0.00 | 0.00 | 70 | 1019.8 |
| 20260905135517 | 81 | 293 | 1.0 | 3.0 | 0.00 | 0.00 | 0.00 | 70 | 1019.8 |
| 20260905134537 | 81 | 293 | 1.0 | 3.0 | 0.00 | 0.00 | 0.00 | 70 | 1019.9 |
| 20260905133517 | 81 | 293 | 2.0 | 5.0 | 0.00 | 0.00 | 0.00 | 71 | 1020.1 |
| 20260905132517 | 80 | 293 | 2.0 | 5.0 | 0.00 | 0.00 | 0.00 | 72 | 1020.1 |
| 20260905131537 | 79 | 293 | 1.0 | 5.0 | 0.00 | 0.00 | 0.00 | 74 | 1020.2 |
| 20260905130516 | 79 | 293 | 1.0 | 7.0 | 0.00 | 0.00 | 0.00 | 72 | 1020.3 |
| 20260905125517 | 80 | 293 | 2.0 | 6.0 | 0.00 | 0.00 | 0.00 | 72 | 1020.3 |
| 20260905124517 | 80 | 0.0 | 3.0 | 0.00 | 0.00 | 0.00 | 73 | 1020.4 | |
| 20260905123516 | 80 | 293 | 1.0 | 3.0 | 0.00 | 0.00 | 0.00 | 74 | 1020.5 |
| 20260905122516 | 79 | 293 | 1.0 | 3.0 | 0.00 | 0.00 | 0.00 | 75 | 1020.5 |
| 20260905121516 | 79 | 293 | 2.0 | 6.0 | 0.00 | 0.00 | 0.00 | 75 | 1020.6 |
| 20260905120517 | 78 | 293 | 2.0 | 9.0 | 0.00 | 0.00 | 0.00 | 75 | 1020.7 |
| 20260905115517 | 78 | 293 | 3.0 | 11.0 | 0.00 | 0.00 | 0.00 | 75 | 1020.7 |
| 20260905114517 | 78 | 293 | 3.0 | 8.0 | 0.00 | 0.00 | 0.00 | 76 | 1020.8 |
| 20260905113516 | 79 | 293 | 2.0 | 6.0 | 0.00 | 0.00 | 0.00 | 75 | 1020.9 |
| 20260905112517 | 79 | 293 | 2.0 | 6.0 | 0.00 | 0.00 | 0.00 | 73 | 1021.1 |
| 20260905111537 | 79 | 293 | 2.0 | 7.0 | 0.00 | 0.00 | 0.00 | 73 | 1021.2 |
| 20260905110536 | 79 | 293 | 2.0 | 5.0 | 0.00 | 0.00 | 0.00 | 74 | 1021.3 |
| 20260905105516 | 78 | 293 | 2.0 | 4.0 | 0.00 | 0.00 | 0.00 | 75 | 1021.6 |
| 20260905104517 | 78 | 293 | 3.0 | 8.0 | 0.00 | 0.00 | 0.00 | 75 | 1021.7 |
| 20260905103516 | 78 | 293 | 2.0 | 4.0 | 0.00 | 0.00 | 0.00 | 76 | 1021.6 |
| 20260905102517 | 78 | 293 | 1.0 | 5.0 | 0.00 | 0.00 | 0.00 | 76 | 1021.7 |
| 20260905101537 | 77 | 293 | 2.0 | 5.0 | 0.00 | 0.00 | 0.00 | 76 | 1021.8 |
| 20260905100517 | 77 | 293 | 1.0 | 3.0 | 0.00 | 0.00 | 0.00 | 78 | 1021.8 |
| 20260905095516 | 76 | 293 | 2.0 | 6.0 | 0.00 | 0.00 | 0.00 | 79 | 1021.9 |
| 20260905094536 | 76 | 293 | 2.0 | 7.0 | 0.00 | 0.00 | 0.00 | 79 | 1021.9 |
| 20260905093516 | 76 | 293 | 2.0 | 7.0 | 0.00 | 0.00 | 0.00 | 78 | 1021.8 |
| 20260905092517 | 76 | 293 | 1.0 | 3.0 | 0.00 | 0.00 | 0.00 | 80 | 1021.8 |
| 20260905091516 | 75 | 293 | 2.0 | 6.0 | 0.00 | 0.00 | 0.00 | 80 | 1021.7 |
| 20260905090537 | 75 | 293 | 1.0 | 4.0 | 0.00 | 0.00 | 0.00 | 81 | 1021.6 |
| 20260905085516 | 74 | 293 | 2.0 | 4.0 | 0.00 | 0.00 | 0.00 | 82 | 1021.6 |
| 20260905084517 | 74 | 293 | 1.0 | 4.0 | 0.00 | 0.00 | 0.00 | 82 | 1021.5 |
| 20260905083517 | 73 | 293 | 1.0 | 2.0 | 0.00 | 0.00 | 0.00 | 81 | 1021.5 |
| 20260905082517 | 72 | 0.0 | 3.0 | 0.00 | 0.00 | 0.00 | 80 | 1021.4 | |
| 20260905081517 | 71 | 293 | 1.0 | 3.0 | 0.00 | 0.00 | 0.00 | 80 | 1021.4 |
| 20260905080516 | 71 | 293 | 1.0 | 3.0 | 0.00 | 0.00 | 0.00 | 79 | 1021.3 |
| 20260905075516 | 71 | 293 | 1.0 | 3.0 | 0.00 | 0.00 | 0.00 | 77 | 1021.4 |
| 20260905074517 | 71 | 293 | 1.0 | 3.0 | 0.00 | 0.00 | 0.00 | 77 | 1021.5 |
| 20260905073539 | 70 | 0.0 | 0.0 | 0.00 | 0.00 | 0.00 | |||
| 20260905073017 | 0 | 0.0 | 0.0 | 0.00 | 0.00 | 0.00 | |||
| 20260905072017 | 0 | 0.0 | 0.0 | 0.00 | 0.00 | 0.00 | |||
| 20260905071522 | 0 | 0.0 | 0.0 | 0.00 | 0.00 | 0.00 | |||
| 20260905071039 | 0 | 0.0 | 0.0 | 0.00 | 0.00 | 0.00 | |||
| 20260905070516 | 0 | 0.0 | 0.0 | 0.00 | 0.00 | 0.00 | |||
| 20260905065516 | 0 | 0.0 | 0.0 | 0.00 | 0.00 | 0.00 | |||
| 20260905065023 | 0 | 0.0 | 0.0 | 0.00 | 0.00 | 0.00 | |||
| 20260905064539 | 0 | 0.0 | 0.0 | 0.00 | 0.00 | 0.00 | |||
| 20260905064016 | 0 | 0.0 | 0.0 | 0.00 | 0.00 | 0.00 | |||
| 20260905063016 | 0 | 0.0 | 0.0 | 0.00 | 0.00 | 0.00 | |||
| 20260905062523 | 0 | 0.0 | 0.0 | 0.00 | 0.00 | 0.00 | |||
| 20260905062039 | 0 | 0.0 | 0.0 | 0.00 | 0.00 | 0.00 | |||
| 20260905061516 | 0 | 0.0 | 0.0 | 0.00 | 0.00 | 0.00 | |||
| 20260905060537 | 0 | 0.0 | 0.0 | 0.00 | 0.00 | 0.00 | |||
| 20260905060022 | 0 | 0.0 | 0.0 | 0.00 | 0.00 | 0.00 | |||
| 20260905055539 | 0 | 0.0 | 0.0 | 0.00 | 0.00 | 0.00 | |||
| 20260905055017 | 0 | 0.0 | 0.0 | 0.00 | 0.00 | 0.00 | |||
| 20260905054016 | 0 | 0.0 | 0.0 | 0.00 | 0.00 | 0.00 | |||
| 20260905053523 | 0 | 0.0 | 0.0 | 0.00 | 0.00 | 0.00 | |||
| 20260905053059 | 0 | 0.0 | 0.0 | 0.00 | 0.00 | 0.00 | |||
| 20260905052537 | 0 | 0.0 | 0.0 | 0.00 | 0.00 | 0.00 | |||
| 20260905051517 | 0 | 0.0 | 0.0 | 0.00 | 0.00 | 0.00 | |||
| 20260905051022 | 0 | 0.0 | 0.0 | 0.00 | 0.00 | 0.00 | |||
| 20260905050539 | 0 | 0.0 | 0.0 | 0.00 | 0.00 | 0.00 | |||
| 20260905050017 | 0 | 0.0 | 0.0 | 0.00 | 0.00 | 0.00 | |||
| 20260905045016 | 0 | 0.0 | 0.0 | 0.00 | 0.00 | 0.00 | |||
| 20260905044523 | 0 | 0.0 | 0.0 | 0.00 | 0.00 | 0.00 | |||
| 20260905044039 | 0 | 0.0 | 0.0 | 0.00 | 0.00 | 0.00 | |||
| 20260905043516 | 0 | 0.0 | 0.0 | 0.00 | 0.00 | 0.00 | |||
| 20260905042516 | 0 | 0.0 | 0.0 | 0.00 | 0.00 | 0.00 | |||
| 20260905042051 | 0 | 0.0 | 0.0 | 0.00 | 0.00 | 0.00 | |||
| 20260905041619 | 0 | 0.0 | 0.0 | 0.00 | 0.00 | 0.00 | |||
| 20260905041016 | 0 | 0.0 | 0.0 | 0.00 | 0.00 | 0.00 | |||
| 20260905040037 | 0 | 0.0 | 0.0 | 0.00 | 0.00 | 0.00 | |||
| 20260905035542 | 0 | 0.0 | 0.0 | 0.00 | 0.00 | 0.00 | |||
| 20260905035039 | 0 | 0.0 | 0.0 | 0.00 | 0.00 | 0.00 | |||
| 20260905034536 | 0 | 0.0 | 0.0 | 0.00 | 0.00 | 0.00 | |||
| 20260905033517 | 0 | 0.0 | 0.0 | 0.00 | 0.00 | 0.00 | |||
| 20260905033022 | 0 | 0.0 | 0.0 | 0.00 | 0.00 | 0.00 | |||
| 20260905032600 | 0 | 0.0 | 0.0 | 0.00 | 0.00 | 0.00 | |||
| 20260905032017 | 0 | 0.0 | 0.0 | 0.00 | 0.00 | 0.00 | |||
| 20260905031016 | 0 | 0.0 | 0.0 | 0.00 | 0.00 | 0.00 | |||
| 20260905030522 | 0 | 0.0 | 0.0 | 0.00 | 0.00 | 0.00 | |||
| 20260905030039 | 0 | 0.0 | 0.0 | 0.00 | 0.00 | 0.00 | |||
| 20260905025036 | 0 | 0.0 | 0.0 | 0.00 | 0.00 | 0.00 | |||
| 20260905024044 | 68 | 0.0 | 0.0 | 0.00 | 0.00 | 0.00 | 78 | 1022.3 | |
| 20260905023632 | 68 | 0.0 | 0.0 | 0.00 | 0.00 | 0.00 | 78 | 1022.4 | |
| 20260905023017 | 68 | 0.0 | 1.0 | 0.00 | 0.00 | 0.00 | 78 | 1022.4 | |
| 20260905022016 | 69 | 0.0 | 2.0 | 0.00 | 0.00 | 0.00 | 77 | 1022.4 | |
| 20260905021016 | 69 | 293 | 1.0 | 2.0 | 0.00 | 0.00 | 0.00 | 77 | 1022.2 |
| 20260905020016 | 69 | 0.0 | 2.0 | 0.00 | 0.00 | 0.00 | 77 | 1022.1 | |
| 20260905015036 | 69 | 0.0 | 3.0 | 0.00 | 0.00 | 0.00 | 78 | 1022.3 | |
| 20260905014016 | 69 | 293 | 1.0 | 3.0 | 0.00 | 0.00 | 0.00 | 78 | 1022.6 |
| 20260905013017 | 69 | 0.0 | 2.0 | 0.00 | 0.00 | 0.00 | 79 | 1022.6 | |
| 20260905012016 | 70 | 293 | 1.0 | 4.0 | 0.00 | 0.00 | 0.00 | 79 | 1022.6 |
| 20260905011016 | 70 | 293 | 1.0 | 3.0 | 0.00 | 0.00 | 0.00 | 79 | 1022.8 |
| 20260905010016 | 70 | 0.0 | 2.0 | 0.00 | 0.00 | 0.00 | 80 | 1023.0 | |
| 20260905005016 | 70 | 0.0 | 2.0 | 0.00 | 0.00 | 0.00 | 80 | 1023.2 | |
| 20260905004016 | 70 | 293 | 1.0 | 3.0 | 0.00 | 0.00 | 0.00 | 79 | 1023.4 |
| 20260905003017 | 69 | 0.0 | 3.0 | 0.00 | 0.00 | 0.00 | 79 | 1023.8 | |
| 20260905002017 | 69 | 0.0 | 2.0 | 0.00 | 0.00 | 0.00 | 80 | 1023.7 | |
| 20260905001016 | 69 | 293 | 2.0 | 6.0 | 0.00 | 0.00 | 0.00 | 80 | 1023.8 |
| 20260905000016 | 69 | 293 | 1.0 | 4.0 | 0.00 | 0.00 | 0.00 | 80 | 1023.8 |
| 20260904235016 | 69 | 293 | 1.0 | 5.0 | 0.00 | 0.00 | 0.00 | 80 | 1023.8 |
| 20260904234056 | 70 | 293 | 1.0 | 4.0 | 0.00 | 0.00 | 0.00 | 80 | 1023.8 |
| 20260904233017 | 69 | 0.0 | 4.0 | 0.00 | 0.00 | 0.00 | 80 | 1023.8 | |
| 20260904232016 | 70 | 293 | 1.0 | 6.0 | 0.00 | 0.00 | 0.00 | 81 | 1023.7 |
| 20260904231036 | 70 | 0.0 | 3.0 | 0.00 | 0.00 | 0.00 | 81 | 1023.6 | |
| 20260904230036 | 70 | 293 | 1.0 | 6.0 | 0.00 | 0.00 | 0.00 | 81 | 1023.5 |
| 20260904225016 | 70 | 0.0 | 2.0 | 0.00 | 0.00 | 0.00 | 81 | 1023.6 | |
| 20260904224016 | 69 | 293 | 1.0 | 3.0 | 0.00 | 0.00 | 0.00 | 81 | 1023.5 |
| 20260904223016 | 69 | 0.0 | 2.0 | 0.00 | 0.00 | 0.00 | 81 | 1023.5 | |
| 20260904222016 | 69 | 0.0 | 1.0 | 0.00 | 0.00 | 0.00 | 81 | 1023.5 | |
| 20260904221016 | 70 | 0.0 | 1.0 | 0.00 | 0.00 | 0.00 | 81 | 1023.5 | |
| 20260904220016 | 70 | 0.0 | 2.0 | 0.00 | 0.00 | 0.00 | 81 | 1023.6 | |
| 20260904215037 | 70 | 0.0 | 3.0 | 0.00 | 0.00 | 0.00 | 81 | 1023.6 | |
| 20260904214017 | 70 | 0.0 | 2.0 | 0.00 | 0.00 | 0.00 | 82 | 1023.7 | |
| 20260904213017 | 70 | 0.0 | 2.0 | 0.00 | 0.00 | 0.00 | 82 | 1023.7 | |
| 20260904212017 | 69 | 0.0 | 3.0 | 0.00 | 0.00 | 0.00 | 82 | 1023.7 | |
| 20260904211018 | 70 | 0.0 | 0.0 | 0.00 | 0.00 | 0.00 | 82 | 1023.8 | |
| 20260904210017 | 70 | 0.0 | 0.0 | 0.00 | 0.00 | 0.00 | 82 | 1023.8 | |
| 20260904205058 | 70 | 0.0 | 1.0 | 0.00 | 0.00 | 0.00 | 82 | 1023.9 | |
| 20260904204017 | 70 | 0.0 | 1.0 | 0.00 | 0.00 | 0.00 | 82 | 1023.8 | |
| 20260904203018 | 70 | 0.0 | 0.0 | 0.00 | 0.00 | 0.00 | 82 | 1023.7 | |
| 20260904202017 | 70 | 0.0 | 0.0 | 0.00 | 0.00 | 0.00 | 82 | 1023.9 | |
| 20260904201017 | 70 | 293 | 1.0 | 3.0 | 0.00 | 0.00 | 0.00 | 82 | 1023.6 |
| 20260904200037 | 70 | 293 | 1.0 | 2.0 | 0.00 | 0.00 | 0.00 | 83 | 1023.6 |
| 20260904195017 | 70 | 0.0 | 2.0 | 0.00 | 0.00 | 0.00 | 82 | 1023.6 | |
| 20260904194017 | 71 | 0.0 | 0.0 | 0.00 | 0.00 | 0.00 | 82 | 1023.6 | |
| 20260904193017 | 71 | 0.0 | 2.0 | 0.00 | 0.00 | 0.00 | 82 | ||
| 20260904192017 | 71 | 293 | 1.0 | 5.0 | 0.00 | 0.00 | 0.00 | 82 | |
| 20260904191038 | 71 | 293 | 2.0 | 6.0 | 0.00 | 0.00 | 0.00 | 82 | |
| 20260904190017 | 71 | 293 | 1.0 | 6.0 | 0.00 | 0.00 | 0.00 | 82 | |
| 20260904185037 | 71 | 293 | 1.0 | 4.0 | 0.00 | 0.00 | 0.00 | 82 | |
| 20260904184017 | 71 | 293 | 2.0 | 6.0 | 0.00 | 0.00 | 0.00 | 82 | |
| 20260904183018 | 71 | 293 | 2.0 | 6.0 | 0.00 | 0.00 | 0.00 | 82 | |
| 20260904182018 | 71 | 293 | 2.0 | 5.0 | 0.00 | 0.00 | 0.00 | 82 | |
| 20260904181038 | 71 | 293 | 2.0 | 5.0 | 0.00 | 0.00 | 0.00 | 82 | |
| 20260904180017 | 71 | 293 | 1.0 | 4.0 | 0.00 | 0.00 | 0.00 | 82 | |
| 20260904175018 | 71 | 0.0 | 3.0 | 0.00 | 0.00 | 0.00 | 82 | ||
| 20260904174017 | 71 | 293 | 1.0 | 6.0 | 0.00 | 0.00 | 0.00 | 82 | |
| 20260904173017 | 71 | 293 | 1.0 | 5.0 | 0.00 | 0.00 | 0.00 | 82 | |
| 20260904172017 | 72 | 293 | 1.0 | 2.0 | 0.00 | 0.00 | 0.00 | 82 | |
| 20260904171017 | 72 | 293 | 1.0 | 4.0 | 0.00 | 0.00 | 0.00 | 82 | |
| 20260904170017 | 72 | 293 | 1.0 | 5.0 | 0.00 | 0.00 | 0.00 | 81 |